Location: Newark
(9.4667°S, 159.8167°E)
Time: 08:25:27
(UTC+00:00)

N. Korean satellite - Visible Passes

Search period start: 26 March 2019 00:00
Search period end: 05 April 2019 00:00
Orbit: 456 x 510 km, 97.2° (Epoch: 25 March)

Date Brightness Start Highest point End Pass type
(mag) Time Alt. Az. Time Alt. Az. Time Alt. Az.
26 Mar 7.0 18:57:16 10° NNE 19:00:56 71° ESE 19:04:40 10° S visible
27 Mar 9.1 18:33:03 10° NE 18:36:12 27° ESE 18:39:24 10° SSE visible
28 Mar 9.6 07:49:40 10° SSW 07:52:19 20° WSW 07:54:57 10° NW visible
28 Mar 10.2 18:10:16 10° E 18:11:31 11° ESE 18:12:46 10° ESE visible
30 Mar 7.5 18:51:25 10° NNE 18:55:03 56° ESE 18:58:44 10° S visible
31 Mar 9.4 18:27:22 10° NE 18:30:19 22° ESE 18:33:16 10° SSE visible
01 Apr 9.2 07:43:29 10° SSW 07:46:23 25° WSW 07:49:14 10° NW visible
03 Apr 8.0 18:45:34 10° NNE 18:49:07 45° ESE 18:52:42 10° S visible
04 Apr 9.9 08:03:39 10° SW 08:05:08 12° WSW 08:06:37 10° WNW visible
04 Apr 9.7 18:21:45 10° ENE 18:24:23 18° ESE 18:27:01 10° SSE visible
